TimeAKST,TemperatureF,Dew PointF,Humidity,Sea Level PressureIn,VisibilityMPH,Wind Direction,Wind SpeedMPH,Gust SpeedMPH,PrecipitationIn,Events,Conditions,WindDirDegrees,DateUTC
12:16 AM,17.6,10.4,73,29.75,10.0,NE,11.5,-,N/A,,Mostly Cloudy,50,2012-11-05 09:16:00
12:36 AM,17.6,8.6,68,29.75,10.0,NE,10.4,-,N/A,,Mostly Cloudy,50,2012-11-05 09:36:00
12:56 AM,15.8,8.6,73,29.76,10.0,NE,9.2,-,N/A,,Partly Cloudy,40,2012-11-05 09:56:00
1:16 AM,14.0,6.8,73,29.77,10.0,NE,8.1,-,N/A,,Clear,40,2012-11-05 10:16:00
1:36 AM,12.2,12.2,100,29.77,10.0,NE,8.1,-,N/A,,Clear,40,2012-11-05 10:36:00
1:56 AM,12.2,6.8,79,29.77,10.0,NE,5.8,-,N/A,,Clear,40,2012-11-05 10:56:00
2:16 AM,12.2,10.4,92,29.78,10.0,ENE,4.6,-,N/A,,Clear,60,2012-11-05 11:16:00
2:36 AM,12.2,8.6,85,29.77,10.0,East,6.9,-,N/A,,Mostly Cloudy,90,2012-11-05 11:36:00
2:56 AM,14.0,10.4,86,29.78,10.0,ENE,4.6,-,N/A,,Overcast,60,2012-11-05 11:56:00
3:16 AM,15.8,6.8,68,29.78,10.0,ENE,5.8,-,N/A,,Overcast,70,2012-11-05 12:16:00
3:36 AM,15.8,6.8,68,29.78,10.0,Calm,Calm,-,N/A,,Overcast,0,2012-11-05 12:36:00
3:56 AM,15.8,6.8,68,29.79,10.0,Calm,Calm,-,N/A,,Overcast,0,2012-11-05 12:56:00
4:16 AM,15.8,6.8,68,29.80,10.0,North,3.5,-,N/A,,Overcast,350,2012-11-05 13:16:00
4:36 AM,17.6,8.6,68,29.80,10.0,NNE,3.5,-,N/A,,Overcast,20,2012-11-05 13:36:00
4:56 AM,15.8,3.2,58,29.80,10.0,NE,4.6,-,N/A,,Mostly Cloudy,40,2012-11-05 13:56:00
5:16 AM,15.8,8.6,73,29.80,10.0,NE,4.6,-,N/A,,Overcast,40,2012-11-05 14:16:00
5:36 AM,15.8,8.6,73,29.80,10.0,NNE,3.5,-,N/A,,Overcast,30,2012-11-05 14:36:00
5:56 AM,15.8,10.4,79,29.82,10.0,NNW,3.5,-,N/A,,Overcast,330,2012-11-05 14:56:00
6:16 AM,15.8,8.6,73,29.82,10.0,WNW,4.6,-,N/A,,Overcast,290,2012-11-05 15:16:00
6:36 AM,15.8,8.6,73,29.82,10.0,NW,3.5,-,N/A,,Overcast,310,2012-11-05 15:36:00
6:56 AM,15.8,6.8,68,29.82,10.0,North,3.5,-,N/A,,Mostly Cloudy,360,2012-11-05 15:56:00
7:16 AM,15.8,6.8,68,29.82,10.0,NNW,3.5,-,N/A,,Partly Cloudy,340,2012-11-05 16:16:00
7:36 AM,15.8,6.8,68,29.83,10.0,NNE,5.8,-,N/A,,Clear,30,2012-11-05 16:36:00
7:56 AM,15.8,8.6,73,29.83,10.0,Calm,Calm,-,N/A,,Clear,0,2012-11-05 16:56:00
8:16 AM,15.8,6.8,68,29.84,10.0,Calm,Calm,-,N/A,,Clear,0,2012-11-05 17:16:00
8:36 AM,15.8,3.2,58,29.84,10.0,NE,4.6,-,N/A,,Clear,50,2012-11-05 17:36:00
8:56 AM,14.0,6.8,73,29.85,10.0,NE,3.5,-,N/A,,Partly Cloudy,50,2012-11-05 17:56:00
9:16 AM,12.2,5.0,73,29.85,10.0,NE,5.8,-,N/A,,Mostly Cloudy,50,2012-11-05 18:16:00
9:36 AM,15.8,10.4,79,29.87,10.0,NNE,8.1,-,N/A,,Partly Cloudy,30,2012-11-05 18:36:00
9:56 AM,15.8,8.6,73,29.87,10.0,NE,6.9,-,N/A,,Clear,50,2012-11-05 18:56:00
10:16 AM,17.6,10.4,73,29.87,10.0,NE,11.5,-,N/A,,Clear,50,2012-11-05 19:16:00
10:36 AM,17.6,8.6,68,29.87,10.0,ENE,5.8,-,N/A,,Clear,60,2012-11-05 19:36:00
10:56 AM,19.4,10.4,68,29.88,10.0,ENE,6.9,-,N/A,,Clear,60,2012-11-05 19:56:00
11:16 AM,19.4,10.4,68,29.88,10.0,ENE,6.9,-,N/A,,Clear,70,2012-11-05 20:16:00
11:36 AM,19.4,8.6,63,29.88,10.0,East,5.8,-,N/A,,Clear,90,2012-11-05 20:36:00
11:56 AM,21.2,8.6,58,29.88,9.0,East,9.2,-,N/A,,Clear,90,2012-11-05 20:56:00
12:16 PM,21.2,8.6,58,29.89,10.0,ENE,5.8,-,N/A,,Partly Cloudy,70,2012-11-05 21:16:00
12:36 PM,23.0,8.6,54,29.90,10.0,NE,10.4,-,N/A,,Clear,40,2012-11-05 21:36:00
12:56 PM,26.6,12.2,55,29.90,10.0,NNE,12.7,-,N/A,,Clear,20,2012-11-05 21:56:00
1:16 PM,26.6,12.2,55,29.90,10.0,NNE,15.0,20.7,0.01,,Clear,20,2012-11-05 22:16:00
1:36 PM,26.6,12.2,55,29.91,10.0,NNE,16.1,-,0.03,,Clear,20,2012-11-05 22:36:00
1:56 PM,26.6,12.2,55,29.90,10.0,North,15.0,-,0.03,,Clear,10,2012-11-05 22:56:00
2:16 PM,26.6,12.2,55,29.90,10.0,NNE,12.7,-,N/A,,Clear,20,2012-11-05 23:16:00
2:36 PM,26.6,10.4,51,29.91,10.0,North,12.7,-,0.01,,Clear,10,2012-11-05 23:36:00
2:56 PM,26.6,12.2,55,29.91,10.0,North,15.0,-,0.01,,Clear,10,2012-11-05 23:56:00
3:16 PM,26.6,10.4,51,29.90,10.0,North,15.0,-,N/A,,Clear,10,2012-11-06 00:16:00
3:36 PM,26.6,14.0,59,29.90,10.0,North,11.5,-,N/A,,Clear,10,2012-11-06 00:36:00
3:56 PM,26.6,14.0,59,29.91,10.0,North,13.8,-,N/A,,Clear,10,2012-11-06 00:56:00
4:16 PM,28.4,15.8,59,29.91,10.0,North,13.8,-,N/A,,Partly Cloudy,360,2012-11-06 01:16:00
4:36 PM,26.6,8.6,47,29.91,10.0,North,13.8,-,N/A,,Partly Cloudy,10,2012-11-06 01:36:00
4:56 PM,26.6,6.8,43,29.92,10.0,North,15.0,-,N/A,,Clear,10,2012-11-06 01:56:00
5:16 PM,24.8,6.8,46,29.93,10.0,North,16.1,-,N/A,,Clear,10,2012-11-06 02:16:00
5:36 PM,24.8,6.8,46,29.93,10.0,North,17.3,-,N/A,,Clear,10,2012-11-06 02:36:00
5:56 PM,24.8,6.8,46,29.94,10.0,North,17.3,-,N/A,,Clear,10,2012-11-06 02:56:00
6:16 PM,24.8,10.4,54,29.94,10.0,North,11.5,-,N/A,,Clear,360,2012-11-06 03:16:00
6:36 PM,24.8,10.4,54,29.95,10.0,North,11.5,-,N/A,,Clear,10,2012-11-06 03:36:00
6:56 PM,24.8,12.2,59,29.96,10.0,North,11.5,-,N/A,,Clear,360,2012-11-06 03:56:00
7:16 PM,24.8,10.4,54,29.95,10.0,North,11.5,-,N/A,,Clear,360,2012-11-06 04:16:00
7:36 PM,23.0,10.4,59,29.96,10.0,North,10.4,-,N/A,,Clear,10,2012-11-06 04:36:00
7:56 PM,21.2,8.6,58,29.97,10.0,NNE,8.1,-,0.02,,Clear,30,2012-11-06 04:56:00
8:16 PM,19.4,8.6,63,29.97,10.0,NNE,6.9,-,N/A,,Partly Cloudy,30,2012-11-06 05:16:00
8:36 PM,17.6,10.4,73,29.98,10.0,NE,10.4,-,N/A,,Clear,50,2012-11-06 05:36:00
8:56 PM,17.6,10.4,73,29.98,10.0,NE,8.1,-,N/A,,Mostly Cloudy,40,2012-11-06 05:56:00
9:16 PM,17.6,8.6,68,29.99,10.0,NE,9.2,-,N/A,,Scattered Clouds,50,2012-11-06 06:16:00
9:36 PM,15.8,8.6,73,30.00,10.0,ENE,8.1,-,N/A,,Clear,60,2012-11-06 06:36:00
9:56 PM,14.0,5.0,67,30.00,10.0,ENE,9.2,-,0.01,,Clear,60,2012-11-06 06:56:00
10:16 PM,14.0,8.6,79,30.01,10.0,ENE,6.9,-,N/A,,Clear,60,2012-11-06 07:16:00
10:36 PM,14.0,3.2,62,30.01,10.0,NE,9.2,-,N/A,,Clear,50,2012-11-06 07:36:00
10:56 PM,15.8,6.8,68,30.01,10.0,ENE,9.2,-,N/A,,Clear,60,2012-11-06 07:56:00
11:16 PM,14.0,3.2,62,30.02,10.0,ENE,6.9,-,0.01,,Clear,60,2012-11-06 08:16:00
11:36 PM,12.2,5.0,73,30.02,10.0,ENE,9.2,-,0.02,,Clear,70,2012-11-06 08:36:00
11:56 PM,12.2,3.2,67,30.02,10.0,ENE,9.2,-,0.02,,Clear,70,2012-11-06 08:56:00